Location: Praha
(50.0830°N, 14.4670°E)
Time: 15:40:47
(UTC+02:00)

ISS - Pass Details

Date: 16 May 2022
Orbit: 414 x 421 km, 51.6° (Epoch: 28 May)

Event Time Altitude Azimuth Distance (km) Brightness Sun altitude
Exits shadow 04:13:08 12° 233° (SW) 1,360 -1.8 -8.6°
Maximum altitude 04:13:36 12° 223° (SW) 1,344 -1.9 -8.6°
Drops below altitude 10° 04:15:04 10° 197° (SSW) 1,481 -1.5 -8.4°
Sets 04:18:06 0° 166° (SSE) 2,338 -0.3 -8.1°
